Location: Richterswil
(47.2055°N, 8.7071°E)
Time: 05:09:11
(UTC+00:00)

Landsat 5 - Pass Details

Date: 07 June 2020
Orbit: 528 x 655 km, 98.2° (Epoch: 14 July)

Event Time Altitude Azimuth Distance (km) Brightness Sun altitude
Rises 02:40:35 0° 163° (SSE) 2,967 6.8 -7.2°
Reaches altitude 10° 02:42:48 10° 163° (SSE) 2,057 6.0 -7.0°
Maximum altitude 02:47:19 87° 74° (ENE) 655 3.7 -6.4°
Drops below altitude 10° 02:51:46 10° 347° (NNW) 2,033 6.6 -5.9°
Sets 02:53:57 0° 347° (NNW) 2,930 7.5 -5.6°
